Leander, TX

9:07 AM CDT on August 30, 2016 (GMT -0500)
Lago Vista

Weather History for KRYW - February, 2014

Change the Weather History Date:

Monday, February 17, 2014

  Actual Average (KATT) Record (KATT)
Temperature  
Mean Temperature 68 °F 55 °F  
Max Temperature 77 °F 66 °F 92 °F (1959)
Min Temperature 59 °F 45 °F 17 °F (1903)
Degree Days  
Heating Degree Days 0 10  
Month to date heating degree days 197  
Since 1 July heating degree days 1237  
Cooling Degree Days 3 1  
Month to date cooling degree days 12  
Year to date cooling degree days 21  
Growing Degree Days 18 (Base 50)    
Moisture  
Dew Point 45 °F    
Average Humidity 55    
Maximum Humidity 94    
Minimum Humidity 17    
Precipitation  
Precipitation 0.00 in 0.08 in 1.97 in (1918)
Month to date precipitation 1.21  
Year to date precipitation 3.43  
Snow  
Snow 0.00 in - - ()
Month to date snowfall  
Since 1 July snowfall  
Snow Depth -    
Sea Level Pressure  
Sea Level Pressure 30.06 in    
Wind  
Wind Speed 10 mph (NNE)    
Max Wind Speed 16 mph    
Max Gust Speed 29 mph    
Visibility 8 miles    
Events      
T = Trace of Precipitation, MM = Missing Value Source: NWS Daily Summary

Daily Weather History Graph

Daily Weather History Graph

Search for Another Location

Airport or City:

Trip Planner

Search our weather history database for the weather conditions in past years. The results will help you decide how hot, cold, wet, or windy it might be!

Date:

Astronomy

Feb. 17, 2014 Rise Set
Actual Time 7:10 AM CST 6:21 PM CST
Civil Twilight 6:45 AM CST 6:46 PM CST
Nautical Twilight 6:17 AM CST 7:14 PM CST
Astronomical Twilight 5:49 AM CST 7:42 PM CST
Moon 9:01 PM CST (2/17) 8:25 AM CST (2/17)
Length of Visible Light 12h 00m
Length of Day
11h 11m
Waning Gibbous, 93% of the Moon is Illuminated
Feb 17
Waning Gibbous
Feb 22
Last Quarter
Mar 1
New
Mar 8
First Quarter
Mar 16
Full

Hourly Weather History & Observations

Time (CST) Temp. Dew Point Humidity Pressure Visibility Wind Dir Wind Speed Gust Speed Precip Events Conditions
12:15 AM 62.8 °F 60.4 °F 92% 29.97 in 5.0 mi SSW 12.7 mph 18.4 mph N/A   Overcast
12:35 AM 63.5 °F 61.2 °F 92% 29.97 in 5.0 mi South 15.0 mph 21.9 mph N/A   Overcast
12:55 AM 63.5 °F 61.2 °F 92% 29.97 in 5.0 mi South 9.2 mph - N/A   Overcast
1:15 AM 63.7 °F 61.3 °F 92% 29.97 in 4.0 mi SSW 9.2 mph 18.4 mph N/A   Overcast
1:35 AM 63.7 °F 61.7 °F 93% 29.98 in 4.0 mi SSW 10.4 mph 16.1 mph N/A   Overcast
1:55 AM 64.0 °F 61.3 °F 91% 29.98 in 5.0 mi SSW 10.4 mph 17.3 mph N/A   Overcast
2:15 AM 64.4 °F 61.3 °F 90% 29.97 in 7.0 mi SSW 8.1 mph 18.4 mph N/A   Overcast
2:35 AM 64.8 °F 61.7 °F 90% 29.96 in 7.0 mi SSW 11.5 mph 18.4 mph N/A   Overcast
2:55 AM 64.6 °F 61.3 °F 89% 29.96 in 7.0 mi SSW 9.2 mph 16.1 mph N/A   Overcast
3:15 AM 64.6 °F 61.3 °F 89% 29.95 in 7.0 mi SSW 9.2 mph 16.1 mph N/A   Overcast
3:35 AM 64.6 °F 61.2 °F 89% 29.95 in 7.0 mi SSW 10.4 mph 19.6 mph N/A   Overcast
3:55 AM 64.4 °F 61.0 °F 89% 29.95 in 7.0 mi SSW 10.4 mph 21.9 mph N/A   Overcast
4:15 AM 64.4 °F 61.0 °F 89% 29.94 in 7.0 mi SSW 16.1 mph 24.2 mph N/A   Overcast
4:35 AM 64.0 °F 61.2 °F 90% 29.94 in 5.0 mi SSW 13.8 mph 20.7 mph N/A   Overcast
4:55 AM 64.0 °F 61.3 °F 91% 29.95 in 5.0 mi SSW 11.5 mph 17.3 mph N/A   Overcast
5:15 AM 63.9 °F 61.3 °F 91% 29.96 in 5.0 mi SW 10.4 mph - N/A   Overcast
5:35 AM 63.7 °F 61.5 °F 93% 29.96 in 4.0 mi SW 9.2 mph - N/A   Overcast
5:55 AM 63.7 °F 61.3 °F 92% 29.98 in 4.0 mi SW 8.1 mph - N/A   Overcast
6:15 AM 63.5 °F 61.3 °F 93% 29.98 in 3.0 mi SW 5.8 mph - N/A   Overcast
6:35 AM 63.5 °F 61.7 °F 94% 29.99 in 3.0 mi WSW 4.6 mph - N/A   Overcast
6:55 AM 63.5 °F 61.5 °F 93% 30.00 in 2.5 mi SW 4.6 mph - N/A   Overcast
7:15 AM 63.5 °F 61.7 °F 94% 30.00 in 4.0 mi SW 4.6 mph - N/A   Overcast
7:35 AM 63.5 °F 61.7 °F 94% 30.00 in 4.0 mi SW 5.8 mph - N/A   Overcast
7:55 AM 63.7 °F 61.7 °F 93% 30.01 in 3.0 mi SW 5.8 mph - N/A   Overcast
8:15 AM 63.9 °F 61.7 °F 93% 30.02 in 4.0 mi SW 8.1 mph - N/A   Overcast
8:35 AM 64.6 °F 61.9 °F 91% 30.04 in 5.0 mi WSW 4.6 mph - N/A   Overcast
8:55 AM 64.6 °F 61.9 °F 91% 30.06 in 5.0 mi SW 5.8 mph - N/A   Overcast
9:15 AM 65.3 °F 62.1 °F 89% 30.06 in 5.0 mi WSW 4.6 mph - N/A   Overcast
9:35 AM 65.8 °F 61.9 °F 87% 30.08 in 7.0 mi West 5.8 mph - N/A   Overcast
9:55 AM 66.9 °F 61.3 °F 82% 30.10 in 7.0 mi NW 8.1 mph - N/A   Overcast
10:15 AM 68.9 °F 60.8 °F 75% 30.10 in 10.0 mi WNW 8.1 mph - N/A   Overcast
10:35 AM 70.0 °F 60.6 °F 72% 30.11 in 10.0 mi NW 9.2 mph - N/A   Mostly Cloudy
10:55 AM 71.6 °F 58.8 °F 64% 30.10 in 10.0 mi NNW 9.2 mph - N/A   Mostly Cloudy
11:15 AM 72.3 °F 56.5 °F 57% 30.11 in 10.0 mi North 10.4 mph 20.7 mph N/A   Overcast
11:35 AM 73.4 °F 53.6 °F 50% 30.11 in 10.0 mi North 12.7 mph 23.0 mph N/A   Scattered Clouds
11:55 AM 74.5 °F 51.4 °F 44% 30.11 in 10.0 mi North 12.7 mph 19.6 mph N/A   Clear
12:15 PM 75.2 °F 48.2 °F 38% 30.11 in 10.0 mi NNE 13.8 mph 24.2 mph N/A   Clear
12:35 PM 74.5 °F 41.5 °F 31% 30.11 in 10.0 mi NNE 13.8 mph 28.8 mph N/A   Clear
12:55 PM 74.7 °F 39.0 °F 28% 30.11 in 10.0 mi NNE 13.8 mph 25.3 mph N/A   Clear
1:15 PM 75.0 °F 36.7 °F 25% 30.10 in 10.0 mi NNE 15.0 mph 25.3 mph N/A   Clear
1:35 PM 75.4 °F 33.3 °F 21% 30.10 in 10.0 mi NE 13.8 mph 23.0 mph N/A   Clear
1:55 PM 75.9 °F 32.4 °F 20% 30.09 in 10.0 mi NE 15.0 mph 20.7 mph N/A   Clear
2:15 PM 76.1 °F 31.1 °F 19% 30.09 in 10.0 mi NNE 15.0 mph 21.9 mph N/A   Clear
2:35 PM 76.3 °F 30.9 °F 19% 30.08 in 10.0 mi NE 16.1 mph 23.0 mph N/A   Clear
2:55 PM 76.1 °F 30.0 °F 18% 30.08 in 10.0 mi NE 12.7 mph 24.2 mph N/A   Clear
3:15 PM 76.6 °F 29.3 °F 18% 30.08 in 10.0 mi NNE 11.5 mph 20.7 mph N/A   Clear
3:35 PM 77.0 °F 29.3 °F 17% 30.08 in 10.0 mi NNE 13.8 mph 19.6 mph N/A   Clear
3:55 PM 76.6 °F 29.3 °F 18% 30.09 in 10.0 mi ENE 9.2 mph 16.1 mph N/A   Clear
4:15 PM 76.3 °F 27.9 °F 17% 30.09 in 10.0 mi ENE 10.4 mph 17.3 mph N/A   Clear
4:35 PM 75.9 °F 28.0 °F 17% 30.09 in 10.0 mi ENE 13.8 mph 19.6 mph N/A   Clear
4:55 PM 75.0 °F 27.7 °F 17% 30.09 in 10.0 mi NE 12.7 mph 18.4 mph N/A   Clear
5:15 PM 74.3 °F 27.9 °F 18% 30.10 in 10.0 mi NE 8.1 mph 16.1 mph N/A   Clear
5:35 PM 71.8 °F 28.4 °F 20% 30.10 in 10.0 mi NE 8.1 mph - N/A   Clear
5:55 PM 70.0 °F 29.1 °F 22% 30.10 in 10.0 mi NE 6.9 mph - N/A   Clear
6:15 PM 68.4 °F 30.6 °F 25% 30.10 in 10.0 mi NE 5.8 mph - N/A   Clear
6:35 PM 67.1 °F 30.4 °F 25% 30.10 in 10.0 mi NE 6.9 mph - N/A   Clear
6:55 PM 66.2 °F 29.8 °F 26% 30.11 in 10.0 mi NE 5.8 mph - N/A   Clear
7:15 PM 65.3 °F 29.3 °F 26% 30.11 in 10.0 mi NE 6.9 mph - N/A   Clear
7:35 PM 64.6 °F 29.5 °F 27% 30.12 in 10.0 mi NE 6.9 mph - N/A   Clear
7:55 PM 63.5 °F 29.3 °F 28% 30.13 in 10.0 mi NNE 8.1 mph - N/A   Clear
8:15 PM 63.5 °F 28.6 °F 27% 30.13 in 10.0 mi NNE 8.1 mph - N/A   Clear
8:35 PM 63.3 °F 27.7 °F 26% 30.13 in 10.0 mi NNE 8.1 mph - N/A   Clear
8:55 PM 62.6 °F 27.3 °F 26% 30.13 in 10.0 mi NNE 8.1 mph - N/A   Clear
9:15 PM 62.2 °F 27.0 °F 26% 30.14 in 10.0 mi NNE 8.1 mph - N/A   Clear
9:35 PM 62.1 °F 26.8 °F 26% 30.14 in 10.0 mi NNE 9.2 mph - N/A   Clear
9:55 PM 61.9 °F 26.1 °F 26% 30.14 in 10.0 mi NNE 9.2 mph - N/A   Clear
10:15 PM 61.7 °F 25.7 °F 25% 30.14 in 10.0 mi NNE 9.2 mph - N/A   Clear
10:35 PM 61.7 °F 25.3 °F 25% 30.14 in 10.0 mi NNE 9.2 mph - N/A   Clear
10:55 PM 61.0 °F 25.2 °F 25% 30.14 in 10.0 mi NNE 9.2 mph - N/A   Clear
11:15 PM 60.3 °F 25.3 °F 26% 30.14 in 10.0 mi NNE 9.2 mph - N/A   Clear
11:35 PM 59.4 °F 25.5 °F 27% 30.14 in 10.0 mi NNE 10.4 mph - N/A   Clear
11:55 PM 59.2 °F 25.5 °F 28% 30.13 in 10.0 mi NNE 10.4 mph - N/A   Clear